Вернуться в каталог

THORAD AGENA D DEB

АктивенPO
NORAD 42527·DEBRIS·🇺🇸 United States

Запущен Apr 8, 1970 с Vandenberg Space Force Base

Loading…

Ближайшие Пролёты (ближайшие 24 часа)

TLE

УстаревающийSource: Space-Track

Эпоха: Sep 7, 2026, 16:47 UTC

1 42527U 70025SH  26250.69985692  .00004792  00000-0  14083-2 0  9993
2 42527  99.1345 214.9323 0024956  70.3820 290.0059 14.44066782663319

Отслеживайте THORAD AGENA D DEB в реальном времени с AllMySat

Download on the App Store